Probability
0 0 0 0 0 0 0 0 0 0 0 0 0 0 0 0 0 0 0 0 0 1 2 2 2 2 1 1 1 0 0 0 0 0 0 0 0 0 1 1 1 0 0
0 0 0 0 0 0 0 0 0 0 0 0 0 0 0 0 0 0 0 0 1 2 2 1 2 3 3 2 1 0 0 0 0 0 0 0 0 0 0 0 0 0 0
0 0 0 0 0 0 0 0 0 0 0 0 0 0 0 0 0 0 0 0 1 1 1 1 2 3 2 1 1 0 0 0 0 0 0 0 0 0 0 0 0 0 0
0 0 1 0 0 0 0 0 0 0 0 0 0 0 0 0 0 0 0 0 0 0 0 1 1 1 1 0 0 0 0 0 0 0 0 0 0 0 0 0 0 0 0
0 0 1 1 0 0 0 0 0 0 0 0 0 0 0 0 0 0 0 0 0 0 0 0 0 0 0 0 0 0 0 0 0 0 0 0 0 0 0 0 0 0 0
0 0 0 1 0 0 0 0 0 0 0 0 0 0 0 1 1 1 1 0 0 0 0 0 0 0 0 0 0 0 0 0 0 0 0 0 0 0 0 0 0 0 0
1 1 1 0 0 0 0 0 0 0 0 0 1 1 1 1 1 1 0 0 0 0 0 0 0 0 0 0 0 0 0 0 0 0 0 0 0 0 0 0 0 0 0
2 2 1 0 0 0 0 0 0 0 0 0 1 2 1 1 1 0 0 0 0 1 1 0 0 0 0 0 0 0 0 0 0 0 0 0 0 0 0 0 0 0 0
5 3 1 0 0 0 0 0 0 0 0 0 1 1 1 0 0 0 0 0 1 2 2 1 0 0 0 0 0 0 0 0 0 0 0 0 0 0 0 0 0 0 0
5 3 1 0 0 0 0 0 0 0 0 0 0 0 0 0 0 0 0 0 1 2 2 1 0 0 0 0 0 0 0 0 0 0 0 0 0 0 0 0 0 0 0
4 2 1 1 1 0 0 0 0 0 0 0 0 0 0 0 0 0 0 0 0 1 1 1 0 0 0 0 0 0 0 0 0 0 0 0 0 0 0 0 0 0 0
3 2 1 2 2 1 0 0 0 0 0 0 0 0 0 0 0 0 0 0 0 0 0 0 0 0 0 0 0 0 0 0 0 0 0 0 0 0 0 0 0 0 0
3 2 2 3 4 3 2 0 0 0 0 0 0 0 0 0 0 0 0 0 0 0 0 0 0 0 0 0 0 0 0 0 0 0 0 0 0 0 0 1 1 1 0
4 3 2 4 5 5 4 1 0 0 0 0 0 0 0 0 0 0 0 0 0 0 0 0 0 0 0 0 0 0 0 0 0 0 0 0 0 0 0 1 1 1 0
5 4 3 4 5 6 5 2 0 0 0 0 0 1 1 1 0 0 0 0 0 0 0 0 0 0 0 0 0 0 0 0 0 0 0 0 0 0 1 1 1 0 0
5 5 5 4 3 5 5 3 1 1 1 1 1 1 2 2 1 0 0 0 0 0 0 0 0 0 0 0 0 0 0 0 0 0 0 0 0 0 1 1 1 0 0
5 5 5 5 4 4 4 3 3 3 3 2 2 3 3 3 1 0 0 0 0 0 0 0 0 0 0 0 0 0 0 0 0 0 0 0 0 0 0 1 1 1 1
4 4 5 5 5 5 4 4 4 4 3 3 3 3 3 3 2 1 0 0 0 0 0 0 0 0 0 0 0 0 0 0 0 0 0 0 0 0 0 0 1 1 2
3 3 3 4 5 5 5 4 4 3 2 2 3 3 3 3 2 1 0 0 0 0 0 0 0 0 0 0 0 0 0 0 0 0 0 0 0 0 0 0 0 1 1
1 2 3 3 3 4 4 3 3 2 1 1 1 2 2 1 1 0 0 0 0 0 0 0 0 0 0 0 0 0 0 0 0 0 0 0 0 0 0 0 0 0 0
0 1 2 2 3 3 3 3 3 2 2 1 1 1 1 0 0 0 0 0 0 0 0 0 0 0 0 0 0 0 0 0 0 0 0 0 0 0 0 0 0 0 0
0 0 1 1 1 3 3 3 3 2 1 1 0 0 0 0 0 0 0 0 0 0 0 0 0 0 0 0 0 0 0 0 0 0 0 0 0 0 0 0 0 0 0
0 0 0 0 1 2 3 3 3 1 0 0 0 0 0 0 0 0 0 0 0 0 0 0 0 0 0 0 0 0 0 0 0 0 0 0 0 0 0 0 0 0 0
0 0 0 0 0 1 2 3 2 1 0 0 0 0 0 0 0 0 0 0 0 0 0 0 1 1 1 0 0 0 0 0 0 0 0 0 0 0 0 0 0 0 0
0 0 0 0 0 0 1 2 2 1 0 0 0 0 0 0 0 0 0 0 0 0 0 0 1 1 1 0 0 0 0 0 0 0 0 0 0 0 0 0 0 0 0
0 0 0 0 0 0 0 1 1 0 0 0 0 0 0 0 0 0 0 0 0 0 0 0 0 1 1 1 0 1 1 1 0 0 0 0 0 0 0 0 0 0 0
Wind_Speed
5 7 7 6 8 7 6 7 7 7 7 7 7 7 7 7 7 7 7 7 7 7 7 8 9 9 9 9 10 10 10 10 10 10 11 11 11 11 11 10 9 7 11
7 8 7 6 7 7 6 6 6 6 6 6 7 7 7 7 7 7 7 7 7 7 7 8 8 9 9 9 9 9 8 8 8 8 9 9 9 9 9 9 9 7 10
8 8 7 6 7 7 6 6 6 6 6 7 7 7 7 7 7 8 7 6 6 6 7 8 8 8 8 8 8 8 8 7 6 6 6 3 5 8 8 8 9 9 9
7 7 7 7 7 7 6 6 6 6 6 7 7 8 8 7 7 7 7 6 6 6 7 7 7 7 8 8 7 7 7 6 5 5 3 3 4 8 8 8 8 9 8
6 7 7 8 7 7 6 6 6 6 7 6 6 7 7 7 7 7 6 5 5 6 7 7 7 7 7 7 7 6 6 5 5 4 3 3 4 7 8 8 8 9 8
6 7 8 7 7 6 6 6 6 6 6 6 6 6 6 6 6 5 5 5 6 6 7 7 6 7 6 6 6 6 5 6 4 3 3 3 4 7 7 8 8 8 8
6 6 8 7 7 6 5 5 5 6 6 6 6 5 5 5 5 5 5 5 6 6 6 6 6 6 6 6 6 6 6 5 3 3 3 4 5 7 7 8 8 7 7
6 6 7 7 6 6 5 5 5 5 5 5 5 5 5 5 5 5 4 4 5 5 5 6 6 6 6 5 5 5 5 5 4 3 3 4 6 7 7 7 7 7 7
5 5 5 5 5 6 5 4 4 5 5 5 5 5 4 4 4 4 4 4 4 5 5 6 6 6 6 6 5 5 5 5 3 2 4 4 7 7 7 7 6 6 6
4 4 4 4 4 4 4 4 4 4 5 5 4 4 4 3 3 3 4 4 5 5 5 5 5 5 6 5 4 4 4 3 2 2 2 4 6 6 6 6 5 5 5
4 3 4 3 3 3 3 4 4 4 4 4 3 3 2 1 2 2 4 4 4 5 5 5 5 4 4 3 3 3 3 1 1 2 2 5 5 5 5 5 5 4 4
4 4 3 3 3 3 2 3 2 2 2 2 2 2 1 1 2 2 4 4 4 4 4 4 3 2 2 1 1 1 1 1 1 1 2 4 4 4 4 4 3 3 3
4 4 3 3 3 3 2 2 1 1 1 2 2 2 1 1 1 2 1 2 2 2 1 2 1 0 0 1 0 0 1 1 1 1 2 4 3 2 2 2 2 1 1
4 4 3 3 3 3 2 2 2 1 1 1 2 2 1 1 1 1 1 1 1 1 1 1 0 0 1 1 0 1 1 1 1 1 2 3 2 1 1 1 1 0 0
4 4 3 3 3 3 2 1 1 1 2 1 2 2 2 1 1 1 1 1 1 1 1 1 1 1 0 0 0 0 0 0 1 1 1 2 2 1 0 1 1 1 1
4 4 4 4 4 3 2 2 1 1 2 1 1 2 2 1 1 1 1 1 1 1 1 1 1 1 0 0 0 0 1 1 1 1 1 1 2 1 1 1 1 1 1
4 4 4 4 4 4 3 2 1 1 2 1 1 2 1 1 1 1 1 1 1 1 1 1 1 1 0 0 0 1 0 1 0 0 1 1 1 1 2 1 1 2 1
3 3 4 3 4 3 3 2 1 1 2 1 1 1 2 1 1 1 1 1 1 1 1 1 1 1 0 0 1 1 0 0 1 1 1 1 1 1 0 1 1 1 1
3 3 3 4 4 4 3 2 2 2 2 2 2 1 1 2 2 1 1 1 1 1 1 1 1 1 1 1 1 0 0 1 1 1 1 1 1 1 1 1 0 1 1
4 3 3 4 4 4 3 2 1 2 2 2 2 2 2 2 2 2 1 1 1 1 1 1 1 1 1 1 0 1 1 1 1 1 2 1 1 1 0 0 1 2 2
4 4 4 3 4 3 3 3 3 3 2 2 2 2 2 2 2 2 2 2 1 2 2 2 1 1 1 1 0 1 1 2 2 1 1 1 1 1 1 1 1 0 1
4 3 3 3 4 4 3 3 2 2 2 2 2 3 3 3 3 3 3 3 2 2 2 2 2 1 1 1 1 0 1 2 2 2 1 2 2 1 1 2 1 1 1
4 4 4 3 3 4 4 2 2 1 1 2 3 3 3 3 3 3 3 3 3 3 3 3 3 3 2 2 1 1 1 2 2 1 3 2 2 1 2 2 2 2 2
4 3 3 3 3 3 4 4 4 4 4 4 3 3 3 3 3 3 3 3 3 3 3 3 3 2 2 2 2 2 1 1 1 2 2 2 2 2 2 2 3 3 2
3 3 3 3 3 3 3 3 4 3 2 1 2 3 3 3 3 3 3 3 3 3 3 3 3 3 3 3 3 2 2 1 1 2 3 2 2 3 3 3 3 3 3
2 2 3 3 3 3 3 3 3 3 3 2 3 3 3 2 3 3 3 3 3 3 3 3 4 4 4 3 3 3 2 2 3 3 3 3 3 3 3 3 3 3 3
Wind_Direction
112 120 123 120 120 114 108 108 106 101 99 98 99 100 99 96 94 89 85 81 77 75 75 75 74 71 69 69 69 68 66 65 65 65 63 63 67 69 66 62 60 59 67
117 123 128 122 121 115 108 109 107 105 102 103 103 102 100 98 98 94 87 83 78 75 76 77 77 74 71 71 70 70 69 66 64 64 63 60 65 68 69 65 62 64 68
116 127 135 122 120 112 105 104 110 107 103 102 104 102 100 97 98 95 89 81 78 76 80 80 77 76 73 72 70 70 70 67 62 59 62 62 67 71 72 71 71 68 68
119 126 133 123 119 113 106 103 110 110 107 102 102 100 98 96 96 94 88 79 75 76 85 82 80 78 74 72 72 71 68 61 49 53 61 69 67 76 76 75 74 71 70
117 118 122 123 120 116 111 110 108 108 108 105 107 106 102 98 93 89 87 81 80 86 84 81 82 80 77 71 68 68 63 51 42 47 57 70 70 79 80 79 78 75 70
118 117 118 120 120 117 114 116 115 111 111 109 110 110 106 100 95 91 88 86 86 85 83 81 80 79 77 70 64 62 55 47 43 55 54 69 75 81 82 81 79 76 72
120 117 124 118 117 114 112 114 117 117 118 114 114 112 109 104 97 94 94 91 89 88 86 82 80 77 73 69 62 52 40 32 56 51 55 64 77 84 81 80 80 78 76
113 116 129 125 124 118 112 112 113 120 121 117 116 113 110 106 104 99 94 98 96 95 93 88 82 76 70 65 54 45 36 37 52 48 61 70 81 85 83 78 76 75 75
113 117 130 139 141 131 121 115 110 115 121 119 116 110 110 110 110 104 99 101 100 100 95 90 84 78 69 64 54 40 38 34 27 44 68 72 82 86 84 81 78 77 74
118 120 132 138 138 137 133 127 119 115 119 121 117 109 107 113 110 107 105 105 103 99 95 91 84 76 69 62 49 30 22 13 35 49 63 77 85 90 85 82 79 76 70
133 132 136 140 138 135 140 141 141 139 135 133 131 128 129 149 128 114 110 109 102 96 95 93 88 80 72 61 46 26 11 31 47 60 64 82 89 90 85 81 74 68 61
161 154 147 147 145 142 150 142 149 152 149 157 150 148 153 137 117 115 104 113 107 101 100 99 95 86 80 64 31 24 1 16 36 67 75 91 99 96 91 86 77 63 55
163 156 154 154 152 146 149 154 154 154 150 154 150 150 152 141 130 123 119 115 119 120 114 104 107 142 50 74 57 20 13 20 36 55 77 88 96 100 100 94 84 76 67
156 161 158 156 156 155 157 166 167 157 156 167 169 164 154 140 136 136 144 142 138 151 142 145 171 132 73 65 56 64 26 17 56 55 80 81 80 97 121 129 110 88 62
163 161 160 158 159 160 164 178 165 164 164 169 159 165 157 153 151 145 155 152 160 153 153 163 166 125 110 132 79 102 194 74 83 82 83 73 60 39 237 213 201 226 228
178 175 171 170 166 162 168 173 173 173 157 154 149 155 154 151 151 157 167 155 164 143 139 148 175 150 182 162 228 241 189 153 137 127 115 96 66 35 319 272 232 234 227
184 176 174 177 169 173 171 176 172 168 159 155 149 143 142 141 152 154 157 149 146 143 150 154 155 140 178 166 228 240 185 172 153 150 133 140 152 64 27 336 264 235 243
178 178 175 176 172 176 171 173 174 172 158 158 148 143 145 140 141 149 154 161 171 161 164 162 150 132 166 222 253 237 181 176 199 207 186 166 159 162 98 45 342 263 256
172 171 172 175 175 176 169 170 177 169 166 160 150 147 163 163 156 147 154 168 175 162 164 172 160 174 196 224 250 247 227 205 218 207 198 181 148 141 160 141 316 320 296
168 166 165 172 173 166 162 169 180 174 178 168 159 160 169 169 157 142 151 166 172 153 158 164 179 211 195 181 247 270 257 227 208 200 206 195 172 164 147 155 221 277 288
159 161 168 172 171 161 173 180 187 197 192 180 173 165 165 169 169 160 162 173 174 175 186 182 177 203 205 145 106 301 293 245 214 209 206 202 194 185 170 190 211 239 280
165 170 172 175 177 180 190 189 187 179 193 184 172 177 177 179 183 182 173 182 182 180 191 190 179 193 191 168 162 161 301 302 277 233 214 218 223 203 203 207 201 221 246
173 180 186 186 181 186 177 165 152 155 169 177 190 193 193 185 185 186 190 184 184 182 195 204 202 190 193 208 189 168 187 238 288 260 227 217 214 222 230 221 225 230 234
180 174 178 178 176 179 173 178 180 189 199 204 190 187 189 190 193 195 199 197 193 193 200 209 204 202 184 197 226 231 213 173 182 285 284 241 218 224 227 235 232 229 229
162 167 174 170 170 172 176 189 192 201 205 190 167 177 186 191 198 202 201 207 207 203 202 205 200 211 206 200 196 203 231 251 222 207 264 272 261 239 226 226 227 229 224
138 154 169 174 179 181 185 194 200 198 192 176 175 185 194 193 200 205 206 213 216 211 209 209 207 214 217 214 213 205 195 200 211 211 237 256 260 251 234 228 224 223 219